Location: Asheville, NC
(35.6000°N, 82.5500°W)
Time: 17:18:01
(UTC-05:00)

NO-84 - Pass Details

Date: 08 January 2018
Orbit: 336 x 568 km, 55.0° (Epoch: 18 January)

Event Time Altitude Azimuth Distance (km) Brightness Sun altitude
Exits shadow 05:46:38 48° 141° (SE) 550 ? -22.6°
Drops below altitude 10° 05:49:15 10° 139° (SE) 1,537 ? -22.1°
Sets 05:51:27 0° 139° (SE) 2,450 ? -21.6°
